[[{"header":{"parameterUnit":"m.s-1","parameterCategory":1,"la1":30.2991,"la2":30.254,"lo1":-89.0895,"lo2":-89.0444,"dy":0.0017,"dx":0.0017,"nx":28,"ny":28,"refTime":"2023-08-20T21:00:00:Z","depth":0,"parameterNumber":2,"parameterNumberName":"U-component_of_WINDS"},"data":[0,0,0,0,0,0,0,0,0,0,0,0,0,0,0,0,0,0,0,0,0,0,0,0,0,0,0,0,0,0,0,0,0,0,0,0,0,0,0,0,0,0,0,0,0,0,0,0,0,0,0,0,0,0,0,0,0,0,-4.7044,-4.7045,0,-4.7151,-4.7152,-4.7154,-4.7094,-4.7091,-4.7088,-4.7085,-4.7193,-4.7199,-4.7204,0,0,0,0,0,0,0,0,0,0,0,0,0,-4.6786,-4.6791,-4.7044,-4.7045,-4.7046,-4.7151,-4.7152,-4.7154,-4.7094,-4.7091,-4.7087,-4.7084,-4.7191,-4.7198,-4.7205,0,0,0,0,0,0,0,0,0,0,0,0,0,-4.6896,-4.6793,-4.7043,-4.7029,-4.7029,-4.7151,-4.7152,-4.7154,-4.7095,-4.7091,-4.7086,-4.7082,-4.7189,-4.7197,-4.7206,-4.7347,0,0,-4.7231,-4.7235,0,0,0,0,0,0,0,0,-4.689,-4.6906,-4.703,-4.703,-4.703,-4.7104,-4.7101,-4.7219,-4.7096,-4.707,-4.7085,-4.708,-4.7167,-4.7177,-4.7207,-4.7352,-4.7356,-4.7232,-4.7237,-4.7241,-4.7243,0,0,0,0,0,0,0,-4.6882,-4.6901,-4.7086,-4.7032,-4.7032,-4.7017,-4.7028,-4.7123,-4.7142,-4.7072,-4.7068,-4.7081,-4.7166,-4.7199,-4.7209,-4.7358,-4.7232,-4.7239,-4.7245,-4.7248,-4.7625,-4.763,0,0,0,0,0,0,-4.6876,-4.6895,-4.7083,-4.7089,-4.6948,-4.7026,-4.7037,-4.7085,-4.7141,-4.7145,-4.7085,-4.7078,-4.7187,-4.7199,-4.7213,-4.7381,-4.7241,-4.7249,-4.7254,-4.762,-4.7626,-4.7631,0,0,0,0,0,0,-4.6871,-4.6893,-4.7078,-4.6991,-4.7013,-4.7035,-4.7089,-4.709,-4.7122,-4.7151,-4.7154,-4.7115,-4.7184,-4.7201,-4.7314,-4.7384,-4.7253,-4.726,-4.7614,-4.7622,-4.7629,-4.772,0,0,0,0,0,0,-4.6863,-4.6892,-4.6945,-4.6993,-4.7018,-4.7178,-4.7093,-4.7095,-4.7137,-4.7129,-4.718,-4.7184,-4.7181,-4.7302,-4.7323,-4.7393,-4.7267,-4.7608,-4.7618,-4.7626,-4.771,-4.7729,-4.7745,0,0,0,0,0,-4.6854,-4.6966,-4.6948,-4.6971,-4.7086,-4.7182,-4.7197,-4.7193,-4.7143,-4.7197,-4.7216,-4.7182,-4.7374,-4.7314,-4.7337,-4.7411,-4.7603,-4.7615,-4.7626,-4.7702,-4.7725,-4.7745,0,0,0,0,0,0,-4.6925,-4.6972,-4.6953,-4.7083,-4.713,-4.7172,-4.724,-4.7217,-4.7278,-4.7267,-4.7259,-4.7271,-4.7389,-4.7412,-4.7344,-4.7551,-4.7481,-4.7497,-4.7531,-4.7554,-4.7571,-4.7562,-4.7274,0,0,0,0,0,-4.6956,-4.7031,-4.7068,-4.7179,-4.7204,-4.7218,-4.726,-4.7253,-4.73,-4.7319,-4.7346,-4.7393,-4.7464,-4.751,-4.7577,-4.7715,-4.7724,-4.7777,-4.7795,-4.7809,-4.7822,-4.7897,-4.792,-4.7668,-4.7668,-4.7667,0,0,-4.702,-4.7055,-4.7103,-4.7194,-4.7229,-4.7307,-4.7235,-4.7319,-4.7376,-4.7332,-4.744,-4.7463,-4.7514,-4.764,-4.7697,-4.7663,-4.7895,-4.7823,-4.7834,-4.784,-4.791,-4.7934,-4.7956,-4.7675,-4.7674,-4.7673,0,0,-4.7176,-4.7211,-4.7307,-4.7345,-4.7399,-4.7408,-4.7432,-4.7479,-4.7492,-4.7602,-4.757,-4.7638,-4.776,-4.7798,-4.7834,-4.8008,-4.7979,-4.803,-4.812,-4.8193,-4.8213,-4.823,-4.8291,-4.8314,-4.8044,-4.8044,-4.8044,0,-4.7248,-4.7364,-4.736,-4.7447,-4.7489,-4.7454,-4.7551,-4.7588,-4.7661,-4.769,-4.7651,-4.7805,-4.7837,-4.7972,-4.8014,-4.8045,-4.8071,-4.8023,-4.821,-4.8228,-4.8244,-4.8302,-4.8326,-4.805,-4.8049,-4.8049,-4.8048,0,-4.745,-4.7531,-4.7603,-4.7675,-4.7725,-4.7817,-4.7827,-4.7878,-4.7868,-4.7882,-4.7994,-4.8032,-4.8106,-4.8138,-4.8129,-4.8273,-4.8249,-4.8211,-4.814,-4.8274,-4.8329,-4.8351,-4.8058,-4.8056,-4.8054,-4.8053,0,0,-4.765,-4.7722,-4.7748,-4.7781,-4.784,-4.7902,-4.7993,-4.8067,-4.811,-4.8163,-4.8239,-4.8345,-4.831,-4.8351,-4.8345,-4.841,-4.8545,-4.8363,-4.8364,-4.8394,-4.8705,-4.8732,-4.8758,-4.8527,-4.8531,-4.8535,-4.87,0,-4.7809,-4.7968,-4.7968,-4.8116,-4.819,-4.816,-4.8239,-4.8284,-4.8301,-4.8366,-4.8384,-4.8458,-4.8408,-4.8432,-4.8494,-4.8515,-4.8606,-4.8503,-4.8597,-4.86,-4.8582,-4.8786,-4.8815,-4.8968,-4.8721,-4.8725,-4.8728,0,-4.8014,-4.8075,-4.823,-4.8279,-4.831,-4.8382,-4.845,-4.8513,-4.8564,-4.8571,-4.8618,-4.8604,-4.8697,-4.8626,-4.8754,-4.8684,-4.8723,-4.8739,-4.8745,-4.8751,-4.867,-4.8797,-4.9017,-4.904,-4.8761,-4.8759,-4.8756,0,-4.8143,-4.8264,-4.8372,-4.8401,-4.8462,-4.8513,-4.854,-4.8587,-4.8632,-4.8692,-4.872,-4.879,-4.8828,-4.8883,-4.8888,-4.8836,-4.9017,-4.8946,-4.9025,-4.9025,-4.9062,-4.9059,-4.9291,-4.9091,-4.9091,-4.909,-4.909,0,-4.8319,-4.8414,-4.8431,-4.8497,-4.8604,-4.8604,-4.8709,-4.8732,-4.8775,-4.8845,-4.8824,-4.889,-4.8894,-4.8962,-4.8967,-4.9073,-4.909,-4.9098,-4.9098,-4.9099,-4.9098,-4.9122,-4.9111,-4.9096,-4.9095,-4.9094,-4.9093,0,-4.8479,-4.8494,-4.861,-4.8659,-4.8674,-4.875,-4.8791,-4.8855,-4.887,-4.896,-4.8981,-4.9005,-4.9084,-4.9096,-4.9189,-4.9192,-4.9318,-4.9308,-4.9301,-4.9299,-4.9377,-4.9369,-4.963,-4.9664,-4.9444,-4.9446,-4.9448,0,-4.8589,-4.8662,-4.872,-4.8766,-4.8796,-4.8871,-4.8917,-4.892,-4.8969,-4.9034,-4.909,-4.9168,-4.9229,-4.9359,-4.9384,-4.9456,-4.9445,-4.9532,-4.9456,-4.9455,-4.9445,-4.944,-4.9447,-4.9546,-4.9549,-4.955,-4.9552,0,-4.8783,-4.8787,-4.8854,-4.8925,-4.8981,-4.9037,-4.9089,-4.9128,-4.9139,-4.9195,-4.9276,-4.9325,-4.9421,-4.9498,-4.957,-4.9598,-4.9577,-4.9577,-4.9598,-4.9599,-4.9591,-4.9595,-4.9339,-4.957,-4.9568,-4.9567,-4.9566,-4.9565,-4.892,-4.8984,-4.9035,-4.9111,-4.9151,-4.9201,-4.9263,-4.9287,-4.9356,-4.9434,-4.9433,-4.9523,-4.9573,-4.9667,-4.9701,-4.9771,-4.9742,-4.9774,-4.9782,-4.9789,-4.9797,-4.9583,-4.9784,-4.9784,-4.9783,-4.9783,-4.9782,0,-4.9111,-4.9143,-4.9213,-4.9288,-4.9348,-4.9325,-4.9383,-4.9434,-4.9514,-4.9563,-4.9625,-4.972,-4.9795,-4.9828,-4.9903,-4.9953,-4.9945,-4.9972,-4.9967,-4.9974,-4.9818,-4.9791,-4.9977,-4.9977,-4.9977,-4.9977,-4.9977,-4.9977,-4.9218,-4.9324,-4.9335,-4.9462,-4.9493,-4.9581,-4.9616,-4.9662,-4.9701,-4.9808,-4.9871,-4.9892,-4.9935,-5.0013,-5.0082,-5.0089,-5.0117,-5.0148,-5.0152,-5.0005,-4.9985,-4.9966,-4.994,-5.0155,-5.0155,-5.0301,-5.0303,-5.0304]},{"header":{"parameterUnit":"m.s-1","parameterCategory":1,"la1":30.2991,"la2":30.254,"lo1":-89.0895,"lo2":-89.0444,"dy":0.0017,"dx":0.0017,"nx":28,"ny":28,"refTime":"2023-08-20T21:00:00:Z","depth":0,"parameterNumber":3,"parameterNumberName":"V-component_of_WINDS"},"data":[0,0,0,0,0,0,0,0,0,0,0,0,0,0,0,0,0,0,0,0,0,0,0,0,0,0,0,0,0,0,0,0,0,0,0,0,0,0,0,0,0,0,0,0,0,0,0,0,0,0,0,0,0,0,0,0,0,0,2.2842,2.2842,0,2.2891,2.2892,2.2893,2.2905,2.2905,2.2904,2.2904,2.2951,2.2952,2.2954,0,0,0,0,0,0,0,0,0,0,0,0,0,2.2754,2.2756,2.2842,2.2842,2.2843,2.2891,2.2892,2.2893,2.2905,2.2905,2.2904,2.2904,2.295,2.2952,2.2954,0,0,0,0,0,0,0,0,0,0,0,0,0,2.2797,2.2756,2.2842,2.2855,2.2857,2.2891,2.2892,2.2893,2.2905,2.2905,2.2904,2.2904,2.295,2.2952,2.2954,2.2978,0,0,2.2961,2.2962,0,0,0,0,0,0,0,0,2.2794,2.28,2.2852,2.2854,2.2856,2.2892,2.2878,2.2921,2.2905,2.2886,2.2904,2.2903,2.2931,2.2935,2.2945,2.298,2.2982,2.2962,2.2963,2.2964,2.2965,0,0,0,0,0,0,0,2.2791,2.2798,2.2861,2.2853,2.2855,2.2857,2.2863,2.2887,2.2911,2.2888,2.2889,2.2895,2.2932,2.2943,2.2946,2.2983,2.2962,2.2964,2.2965,2.2966,2.304,2.304,0,0,0,0,0,0,2.2787,2.2795,2.286,2.2863,2.2824,2.2859,2.2866,2.2881,2.2911,2.2915,2.2895,2.2895,2.2939,2.2944,2.2948,2.2978,2.2964,2.2966,2.2967,2.3039,2.304,2.304,0,0,0,0,0,0,2.2785,2.2792,2.2858,2.2829,2.2838,2.2861,2.2878,2.2882,2.2893,2.2916,2.292,2.2902,2.2939,2.2945,2.2971,2.298,2.2967,2.2969,2.3038,2.3039,2.304,2.3037,0,0,0,0,0,0,2.2782,2.2791,2.2801,2.283,2.2839,2.288,2.2879,2.2883,2.2897,2.2898,2.2924,2.2927,2.2939,2.2967,2.2973,2.2983,2.2971,2.3038,2.3039,2.304,2.3036,2.3038,2.3039,0,0,0,0,0,2.2779,2.2797,2.2802,2.2809,2.2852,2.2881,2.2886,2.2901,2.2898,2.2907,2.2923,2.2927,2.2978,2.297,2.2976,2.2987,2.3037,2.3038,2.304,2.3036,2.3037,2.3039,0,0,0,0,0,0,2.2768,2.2801,2.2806,2.2835,2.2855,2.2883,2.2895,2.2902,2.2922,2.2921,2.2937,2.2943,2.2968,2.298,2.297,2.3011,2.3007,2.301,2.3002,2.3004,2.3005,2.3001,2.2973,0,0,0,0,0,2.2769,2.2791,2.2818,2.2841,2.2851,2.2871,2.2884,2.2894,2.2915,2.2923,2.294,2.2959,2.298,2.2993,2.3013,2.3039,2.3044,2.3049,2.305,2.3051,2.3053,2.3068,2.307,2.3045,2.3045,2.3045,0,0,2.2771,2.2792,2.2804,2.2839,2.2856,2.2877,2.2878,2.29,2.2915,2.2926,2.2951,2.2965,2.2987,2.3013,2.3026,2.3024,2.3061,2.3053,2.3053,2.3055,2.3069,2.3072,2.3074,2.3046,2.3045,2.3045,0,0,2.2785,2.2804,2.2825,2.2842,2.2868,2.2882,2.2887,2.2914,2.2924,2.295,2.2958,2.2976,2.3011,2.3027,2.304,2.3062,2.3066,2.3068,2.3073,2.3087,2.3089,2.3091,2.3099,2.3101,2.307,2.307,2.307,0,2.2784,2.2817,2.2834,2.2856,2.2871,2.2883,2.2904,2.2919,2.295,2.2959,2.2958,2.3003,2.3019,2.3049,2.3054,2.3064,2.307,2.3064,2.3088,2.309,2.3092,2.3099,2.3102,2.307,2.307,2.307,2.307,0,2.2814,2.2837,2.285,2.2881,2.2898,2.2919,2.2938,2.2953,2.2961,2.2975,2.3002,2.3022,2.3046,2.3054,2.3062,2.3086,2.3084,2.3085,2.3081,2.3094,2.3101,2.3104,2.307,2.307,2.307,2.307,0,0,2.2821,2.2863,2.2867,2.2882,2.2912,2.2929,2.2951,2.2977,2.2989,2.301,2.3028,2.3058,2.3059,2.3074,2.3083,2.3096,2.3112,2.3096,2.3096,2.3097,2.3139,2.3137,2.314,2.3115,2.3116,2.3116,2.3136,0,2.2839,2.2879,2.2896,2.2928,2.2949,2.2962,2.298,2.3,2.3014,2.3033,2.3048,2.3069,2.307,2.3079,2.3092,2.3107,2.312,2.3106,2.3131,2.3132,2.3124,2.3144,2.3142,2.316,2.3139,2.314,2.314,0,2.2864,2.2887,2.2922,2.2951,2.296,2.2977,2.3002,2.302,2.3043,2.3052,2.3069,2.3079,2.3101,2.3097,2.3128,2.3118,2.3129,2.3138,2.3139,2.3141,2.3136,2.3145,2.3166,2.3168,2.3145,2.3144,2.3144,0,2.2866,2.2905,2.2931,2.2943,2.2977,2.2989,2.3003,2.3026,2.304,2.3062,2.3071,2.3095,2.3107,2.3125,2.314,2.3136,2.3169,2.3166,2.3177,2.3176,2.3182,2.3181,2.3204,2.3191,2.3191,2.3191,2.3191,0,2.2883,2.2904,2.2933,2.2948,2.2972,2.2991,2.3013,2.3028,2.3048,2.3067,2.3079,2.3095,2.3115,2.3134,2.3146,2.317,2.3175,2.3182,2.3185,2.3181,2.318,2.3188,2.3187,2.3192,2.3191,2.3191,2.3191,0,2.2888,2.2908,2.2938,2.2968,2.2976,2.2992,2.3017,2.3033,2.3048,2.3071,2.3077,2.31,2.3123,2.3141,2.317,2.3179,2.3203,2.3207,2.3196,2.3197,2.3206,2.3205,2.3234,2.3238,2.3223,2.3223,2.3223,0,2.2897,2.2914,2.2947,2.2961,2.2975,2.2997,2.3013,2.3032,2.3047,2.3075,2.3087,2.3112,2.3132,2.3168,2.3187,2.321,2.3213,2.3222,2.3216,2.3212,2.3213,2.3211,2.3213,2.3222,2.3222,2.3222,2.3222,0,2.2912,2.2921,2.2944,2.297,2.2989,2.301,2.3031,2.3041,2.3064,2.308,2.3105,2.3121,2.3152,2.3176,2.3201,2.3215,2.3222,2.3224,2.3228,2.3223,2.3216,2.3219,2.3197,2.3223,2.3223,2.3223,2.3223,2.3223,2.2919,2.2934,2.296,2.2985,2.3003,2.3023,2.3039,2.3057,2.3078,2.3106,2.3116,2.3141,2.3164,2.3199,2.3213,2.3232,2.3232,2.3237,2.3238,2.3239,2.3238,2.3214,2.3237,2.3237,2.3237,2.3237,2.3237,0,2.2934,2.2951,2.2974,2.3004,2.3023,2.303,2.3054,2.307,2.3092,2.3114,2.3134,2.3163,2.3186,2.3207,2.3231,2.3243,2.3247,2.3248,2.3247,2.325,2.3237,2.3232,2.3245,2.3245,2.3245,2.3245,2.3245,2.3245,2.2943,2.297,2.2983,2.3018,2.3035,2.3061,2.3074,2.3092,2.311,2.3141,2.3162,2.3176,2.3197,2.3223,2.3245,2.325,2.3258,2.3259,2.3265,2.3252,2.3251,2.325,2.3245,2.3261,2.3261,2.3276,2.3276,2.3277]}]]